Location: Tucson
(32.2217°N, 110.9265°W)
Time: 12:32:52
(UTC-07:00)

ISS - Visible Passes

Search period start: 21 September 2017 00:00
Search period end: 01 October 2017 00:00
Orbit: 401 x 407 km, 51.6° (Epoch: 22 September)

Date Brightness Start Highest point End Pass type
(mag) Time Alt. Az. Time Alt. Az. Time Alt. Az.
21 Sep -0.3 03:43:18 11° ENE 03:43:18 11° ENE 03:43:38 10° ENE visible
21 Sep -3.5 05:16:02 17° WNW 05:18:13 44° SW 05:21:21 10° SSE visible
22 Sep -2.5 04:27:08 37° ESE 04:27:08 37° ESE 04:29:14 10° SE visible
22 Sep -2.2 19:23:26 10° S 19:25:18 20° SSE 19:25:18 20° SSE visible
23 Sep -1.6 05:11:07 13° SSW 05:11:07 13° SSW 05:11:52 10° SSW visible
23 Sep -2.3 20:06:47 10° WSW 20:09:01 36° W 20:09:01 36° W visible
24 Sep -3.9 19:14:25 10° SW 19:17:38 67° SE 19:19:45 20° NE visible
25 Sep -1.4 19:59:20 10° W 20:01:52 20° NW 20:02:58 17° N visible
26 Sep -2.5 19:06:19 10° WSW 19:09:23 39° NW 19:12:29 10° NNE visible
27 Sep -0.6 19:53:35 10° NW 19:53:54 10° NNW 19:54:13 10° NNW visible
28 Sep -1.1 18:59:03 10° WNW 19:01:16 17° NW 19:03:31 10° N visible
